Fairfield, PA

5:40 AM EST on February 27, 2017 (GMT -0500)
Fountain Dale

Weather History for KRYT - April, 2013

Change the Weather History Date:

Monday, April 22, 2013

  Actual Average (KHGR) Record (KHGR)
Temperature  
Mean Temperature 46 °F -  
Max Temperature 57 °F 62 °F 80 °F (2001)
Min Temperature 34 °F 41 °F 34 °F (2013)
Degree Days  
Heating Degree Days 20    
Moisture  
Dew Point 29 °F    
Average Humidity 54    
Maximum Humidity 82    
Minimum Humidity 35    
Precipitation  
Precipitation 0.10 in - - ()
Sea Level Pressure  
Sea Level Pressure 30.49 in    
Wind  
Wind Speed 2 mph (NE)    
Max Wind Speed 10 mph    
Max Gust Speed 18 mph    
Visibility 10 miles    
Events      
Averages and records for this station are not official NWS values.
T = Trace of Precipitation, MM = Missing Value Source: NWS Daily Summary

Daily Weather History Graph

Daily Weather History Graph

Search for Another Location

Airport or City:

Trip Planner

Search our weather history database for the weather conditions in past years. The results will help you decide how hot, cold, wet, or windy it might be!

Date:

Astronomy

Apr. 22, 2013 Rise Set
Actual Time 6:21 AM EDT 7:55 PM EDT
Civil Twilight 5:53 AM EDT 8:23 PM EDT
Nautical Twilight 5:19 AM EDT 8:58 PM EDT
Astronomical Twilight 4:42 AM EDT 9:34 PM EDT
Moon 4:42 PM EDT (4/22) 4:14 AM EDT (4/22)
Length of Visible Light 14h 30m
Length of Day
13h 33m
Waxing Gibbous, 87% of the Moon is Illuminated
Apr 22
Waxing Gibbous
Apr 25
Full
May 2
Last Quarter
May 9
New
May 18
First Quarter

Hourly Weather History & Observations

Time (EDT) Temp. Windchill Dew Point Humidity Pressure Visibility Wind Dir Wind Speed Gust Speed Precip Events Conditions
12:53 AM 37.9 °F - 27.0 °F 65% 30.56 in 10.0 mi Calm Calm - N/A   Clear
1:53 AM 35.1 °F - 28.0 °F 76% 30.56 in 10.0 mi Calm Calm - N/A   Clear
2:53 AM 36.0 °F - 28.0 °F 73% 30.56 in 10.0 mi Calm Calm - N/A   Clear
3:53 AM 37.0 °F - 28.9 °F 73% 30.56 in 10.0 mi Calm Calm - N/A   Clear
5:53 AM 34.0 °F - 28.9 °F 82% 30.56 in 10.0 mi Calm Calm - N/A   Clear
7:53 AM 39.0 °F 35.7 °F 30.0 °F 70% 30.58 in 10.0 mi NNE 4.6 mph - N/A   Clear
8:53 AM 42.1 °F 40.2 °F 28.9 °F 60% 30.58 in 10.0 mi Variable 3.5 mph - N/A   Clear
9:53 AM 46.0 °F 43.9 °F 30.0 °F 54% 30.57 in 10.0 mi Variable 4.6 mph - N/A   Clear
10:53 AM 48.0 °F - 30.0 °F 50% 30.56 in 10.0 mi NE 6.9 mph 16.1 mph N/A   Partly Cloudy
11:53 AM 50.0 °F - 26.1 °F 39% 30.54 in 10.0 mi NE 6.9 mph - N/A   Clear
1:53 PM 54.0 °F - 30.0 °F 40% 30.48 in 10.0 mi NE 10.4 mph 18.4 mph 0.10 in   Partly Cloudy
2:53 PM 55.9 °F - 30.0 °F 37% 30.45 in 10.0 mi North 8.1 mph - N/A   Scattered Clouds
3:53 PM 57.0 °F - 30.0 °F 36% 30.43 in 10.0 mi Calm Calm - N/A   Scattered Clouds
4:53 PM 57.9 °F - 30.0 °F 35% 30.41 in 10.0 mi Variable 5.8 mph - N/A   Clear
5:53 PM 57.0 °F - 30.0 °F 36% 30.40 in 10.0 mi Calm Calm - N/A   Clear
6:53 PM 55.9 °F - 30.0 °F 37% 30.40 in 10.0 mi Calm Calm - N/A   Scattered Clouds
7:53 PM 52.0 °F - 30.9 °F 45% 30.41 in 10.0 mi Variable 3.5 mph - N/A   Scattered Clouds
8:53 PM 50.0 °F - 30.9 °F 48% 30.43 in 10.0 mi Calm Calm - N/A   Clear
9:53 PM 46.9 °F - 30.9 °F 54% 30.44 in 10.0 mi Calm Calm - N/A   Clear
10:53 PM 45.0 °F - 30.0 °F 56% 30.43 in 10.0 mi Calm Calm - N/A   Clear
11:53 PM 43.0 °F - 30.0 °F 60% 30.43 in 10.0 mi Calm Calm - N/A   Clear